Fort Campbell, TN

4:18 PM CST on February 07, 2016 (GMT -0600)
Outlaw

Weather History for KCKV - March, 2013

Change the Weather History Date:

Sunday, March 3, 2013

  Actual Average Record
Temperature  
Mean Temperature 33 °F -  
Max Temperature 42 °F - 80 °F (1955)
Min Temperature 23 °F - 0 °F (1980)
Degree Days  
Heating Degree Days 32    
Month to date heating degree days 94  
Since 1 July heating degree days 3011  
Cooling Degree Days 0    
Month to date cooling degree days 0  
Moisture  
Dew Point 18 °F    
Average Humidity 55    
Maximum Humidity 81    
Minimum Humidity 29    
Precipitation  
Precipitation 0.00 in - 1.10 in (1953)
Month to date precipitation 0.09  
Sea Level Pressure  
Sea Level Pressure 30.15 in    
Wind  
Wind Speed 9 mph (NNW)    
Max Wind Speed 14 mph    
Max Gust Speed 17 mph    
Visibility 10 miles    
Events      
T = Trace of Precipitation, MM = Missing Value Source: NWS Daily Summary

Daily Weather History Graph

Daily Weather History Graph

Search for Another Location

Airport or City:

Trip Planner

Search our weather history database for the weather conditions in past years. The results will help you decide how hot, cold, wet, or windy it might be!

Date:

Astronomy

Mar. 03, 2013 Rise Set
Actual Time 6:17 AM CST 5:46 PM CST
Civil Twilight 5:51 AM CST 6:12 PM CST
Nautical Twilight 5:21 AM CST 6:42 PM CST
Astronomical Twilight 4:51 AM CST 7:12 PM CST
Moon No Moon Rise 9:42 AM CST (3/3)
Length of Visible Light 12h 20m
Length of Day
11h 29m
Waning Gibbous, 63% of the Moon is Illuminated
Mar 3
Waning Gibbous
Mar 4
Last Quarter
Mar 11
New
Mar 19
First Quarter
Mar 27
Full

Hourly Weather History & Observations

Time (CST) Temp. Windchill Dew Point Humidity Pressure Visibility Wind Dir Wind Speed Gust Speed Precip Events Conditions
12:52 AM 28.9 °F 21.1 °F 21.0 °F 72% 30.19 in 10.0 mi NW 8.1 mph - N/A   Overcast
1:52 AM 28.0 °F 19.3 °F 19.9 °F 72% 30.18 in 10.0 mi NW 9.2 mph - N/A   Scattered Clouds
2:52 AM 27.0 °F 21.6 °F 21.0 °F 78% 30.17 in 10.0 mi NW 4.6 mph - N/A   Mostly Cloudy
3:52 AM 27.0 °F 19.5 °F 19.0 °F 72% 30.17 in 10.0 mi NNW 6.9 mph - N/A   Mostly Cloudy
4:52 AM 26.1 °F 19.4 °F 18.0 °F 71% 30.17 in 10.0 mi NW 5.8 mph - N/A   Partly Cloudy
5:52 AM 24.1 °F 18.2 °F 17.1 °F 75% 30.18 in 10.0 mi NW 4.6 mph - N/A   Clear
6:52 AM 24.1 °F 17.0 °F 18.0 °F 77% 30.19 in 10.0 mi WNW 5.8 mph - N/A   Clear
7:52 AM 27.0 °F 18.0 °F 17.1 °F 66% 30.20 in 10.0 mi NNW 9.2 mph - N/A   Clear
8:52 AM 30.0 °F 20.5 °F 17.1 °F 59% 30.19 in 10.0 mi North 11.5 mph - N/A   Clear
9:52 AM 32.0 °F 24.2 °F 16.0 °F 52% 30.20 in 10.0 mi NNW 9.2 mph - N/A   Clear
10:52 AM 33.1 °F 27.7 °F 18.0 °F 54% 30.19 in 10.0 mi NW 5.8 mph - N/A   Clear
11:52 AM 36.0 °F 28.0 °F 17.1 °F 46% 30.18 in 10.0 mi NNW 11.5 mph 16.1 mph N/A   Clear
12:52 PM 37.9 °F 30.0 °F 12.9 °F 36% 30.14 in 10.0 mi NNW 12.7 mph - N/A   Clear
1:52 PM 39.9 °F 33.4 °F 14.0 °F 35% 30.13 in 10.0 mi NW 10.4 mph - N/A   Clear
2:52 PM 42.1 °F 36.1 °F 15.1 °F 34% 30.12 in 10.0 mi NNW 10.4 mph 16.1 mph N/A   Clear
3:52 PM 42.1 °F 36.6 °F 12.9 °F 31% 30.11 in 10.0 mi NNW 9.2 mph - N/A   Clear
4:52 PM 39.9 °F 33.9 °F 12.9 °F 33% 30.11 in 10.0 mi North 9.2 mph - N/A   Overcast
5:52 PM 37.9 °F 34.4 °F 16.0 °F 41% 30.10 in 10.0 mi North 4.6 mph - N/A   Overcast
6:52 PM 37.0 °F 34.5 °F 19.9 °F 50% 30.12 in 10.0 mi NNE 3.5 mph - N/A   Overcast
7:52 PM 37.0 °F - 19.0 °F 48% 30.11 in 10.0 mi Calm Calm - N/A   Overcast
8:52 PM 36.0 °F - 19.0 °F 50% 30.12 in 10.0 mi Calm Calm - N/A   Overcast
9:52 PM 36.0 °F - 19.0 °F 50% 30.12 in 10.0 mi Calm Calm - N/A   Overcast
10:52 PM 35.1 °F - 21.9 °F 59% 30.12 in 10.0 mi Calm Calm - N/A   Mostly Cloudy
11:52 PM 35.1 °F 32.2 °F 26.1 °F 70% 30.12 in 10.0 mi SE 3.5 mph - N/A   Overcast